Weather History for Thomson, GA

Change the Weather History Date:

Saturday, February 1, 2014

  Actual Average (KDBN) Record (KDBN)
Temperature  
Mean Temperature 38 °F -  
Max Temperature 52 °F 61 °F 82 °F (1957)
Min Temperature 25 °F 33 °F 17 °F (1966)
Degree Days  
Heating Degree Days 26    
Moisture  
Dew Point 35 °F    
Average Humidity 83    
Maximum Humidity 100    
Minimum Humidity 47    
Precipitation  
Precipitation 0.00 in - - ()
Sea Level Pressure  
Sea Level Pressure 30.20 in    
Wind  
Wind Speed 0 mph (ENE)    
Max Wind Speed 5 mph    
Max Gust Speed -    
Visibility 10 miles    
Events      
Averages and records for this station are not official NWS values.
T = Trace of Precipitation, MM = Missing Value Source: NWS Daily Summary

Daily Weather History Graph

Daily Weather History Graph

Search for Another Location

Airport:

Trip Planner

Search our weather history database for the weather conditions in past years. The results will help you decide how hot, cold, wet, or windy it might be!

Date:

Astronomy

Feb. 01, 2014 Rise Set
Actual Time 7:26 AM EST 6:01 PM EST
Civil Twilight 7:00 AM EST 6:27 PM EST
Nautical Twilight 6:30 AM EST 6:57 PM EST
Astronomical Twilight 6:01 AM EST 7:26 PM EST
Moon 8:23 AM EST (2/1) 8:25 PM EST (2/1)
Length of Visible Light 11h 27m
Length of Day
10h 35m
Waxing Crescent, 5% of the Moon is Illuminated
Feb 1
Waxing Crescent
Feb 6
First Quarter
Feb 14
Full
Feb 22
Last Quarter
Mar 1
New

Hourly Weather History & Observations

Time (EST) Temp. Windchill Dew Point Humidity Pressure Visibility Wind Dir Wind Speed Gust Speed Precip Events Conditions
12:15 AM 27.3 °F - 26.4 °F 96% 30.22 in 10.0 mi Calm Calm - N/A   Clear
12:35 AM 27.0 °F - 26.2 °F 97% 30.21 in 10.0 mi Calm Calm - N/A   Clear
12:55 AM 26.6 °F - 25.9 °F 97% 30.21 in 10.0 mi Calm Calm - N/A   Clear
1:15 AM 25.5 °F - 25.5 °F 100% 30.21 in 10.0 mi Calm Calm - N/A   Clear
1:35 AM 25.9 °F - 25.9 °F 100% 30.21 in 10.0 mi Calm Calm - N/A   Clear
1:55 AM 26.1 °F - 25.7 °F 99% 30.20 in 10.0 mi Calm Calm - N/A   Clear
2:15 AM 26.1 °F - 25.7 °F 99% 30.20 in 10.0 mi Calm Calm - N/A   Clear
2:35 AM 25.7 °F - 25.5 °F 99% 30.19 in 10.0 mi Calm Calm - N/A   Clear
2:55 AM 25.7 °F - 25.5 °F 99% 30.19 in 10.0 mi Calm Calm - N/A   Clear
3:15 AM 25.5 °F - 25.3 °F 99% 30.19 in 10.0 mi Calm Calm - N/A   Clear
3:35 AM 25.2 °F - 25.2 °F 100% 30.19 in 10.0 mi Calm Calm - N/A   Clear
3:55 AM 25.5 °F - 25.5 °F 100% 30.19 in 10.0 mi Calm Calm - N/A   Clear
4:15 AM 25.9 °F - 25.9 °F 100% 30.20 in 10.0 mi Calm Calm - N/A   Clear
4:35 AM 26.4 °F - 26.4 °F 100% 30.20 in 10.0 mi Calm Calm - N/A   Mostly Cloudy
4:55 AM 26.8 °F - 26.4 °F 99% 30.21 in 10.0 mi Calm Calm - N/A   Scattered Clouds
5:15 AM 27.5 °F - 27.1 °F 99% 30.21 in 10.0 mi Calm Calm - N/A   Mostly Cloudy
5:35 AM 27.9 °F - 27.5 °F 99% 30.22 in 10.0 mi Calm Calm - N/A   Mostly Cloudy
5:55 AM 28.9 °F - 28.2 °F 97% 30.21 in 10.0 mi Calm Calm - N/A   Overcast
6:15 AM 29.3 °F - 28.9 °F 99% 30.21 in 10.0 mi Calm Calm - N/A   Overcast
6:35 AM 29.3 °F - 28.4 °F 96% 30.21 in 10.0 mi Calm Calm - N/A   Scattered Clouds
6:55 AM 29.7 °F - 28.4 °F 95% 30.21 in 10.0 mi Calm Calm - N/A   Mostly Cloudy
7:15 AM 29.8 °F - 28.8 °F 96% 30.21 in 10.0 mi Calm Calm - N/A   Scattered Clouds
7:35 AM 29.7 °F - 29.3 °F 99% 30.23 in 10.0 mi Calm Calm - N/A   Mostly Cloudy
7:55 AM 30.6 °F - 29.8 °F 97% 30.23 in 10.0 mi Calm Calm - N/A   Overcast
8:15 AM 32.0 °F - 31.1 °F 96% 30.23 in 10.0 mi Calm Calm - N/A   Overcast
8:35 AM 33.3 °F - 32.0 °F 95% 30.24 in 10.0 mi Calm Calm - N/A   Overcast
8:55 AM 35.6 °F - 32.0 °F 87% 30.24 in 10.0 mi Calm Calm - N/A   Overcast
9:15 AM 36.5 °F - 32.7 °F 86% 30.25 in 10.0 mi Calm Calm - N/A   Overcast
9:35 AM 37.6 °F - 32.9 °F 83% 30.25 in 10.0 mi Calm Calm - N/A   Overcast
9:55 AM 39.7 °F - 33.6 °F 79% 30.24 in 10.0 mi Calm Calm - N/A   Overcast
10:15 AM 43.9 °F - 32.4 °F 64% 30.24 in 10.0 mi Calm Calm - N/A   Overcast
10:35 AM 45.5 °F 44.2 °F 32.2 °F 60% 30.24 in 10.0 mi NE 3.5 mph - N/A   Overcast
10:55 AM 47.1 °F - 32.0 °F 56% 30.24 in 10.0 mi Calm Calm - N/A   Overcast
11:15 AM 48.2 °F - 31.8 °F 53% 30.24 in 10.0 mi Calm Calm - N/A   Overcast
11:35 AM 49.6 °F - 32.0 °F 51% 30.23 in 10.0 mi NE 3.5 mph - N/A   Overcast
11:55 AM 50.5 °F - 30.7 °F 47% 30.23 in 10.0 mi ENE 4.6 mph - N/A   Overcast
12:15 PM 49.3 °F - 34.2 °F 56% 30.22 in 10.0 mi ENE 3.5 mph - N/A   Overcast
12:35 PM 50.9 °F - 33.4 °F 51% 30.21 in 10.0 mi East 3.5 mph - N/A   Overcast
12:55 PM 52.0 °F - 34.5 °F 51% 30.21 in 10.0 mi Calm Calm - N/A   Overcast
1:15 PM 51.6 °F - 35.6 °F 54% 30.20 in 10.0 mi East 3.5 mph - N/A   Overcast
1:35 PM 51.3 °F - 38.3 °F 61% 30.19 in 10.0 mi Calm Calm - N/A   Overcast
1:55 PM 51.3 °F - 39.0 °F 63% 30.18 in 10.0 mi East 3.5 mph - N/A   Overcast
2:15 PM 51.8 °F - 39.4 °F 63% 30.17 in 10.0 mi Calm Calm - N/A   Overcast
2:35 PM 52.7 °F - 39.6 °F 61% 30.16 in 10.0 mi ENE 3.5 mph - N/A   Overcast
2:55 PM 52.5 °F - 39.9 °F 62% 30.16 in 10.0 mi Calm Calm - N/A   Overcast
3:15 PM 52.3 °F - 41.9 °F 68% 30.16 in 10.0 mi Calm Calm - N/A   Overcast
3:35 PM 52.3 °F - 41.9 °F 68% 30.16 in 10.0 mi Calm Calm - N/A   Overcast
3:55 PM 52.7 °F - 41.5 °F 66% 30.16 in 10.0 mi East 3.5 mph - N/A   Overcast
4:15 PM 52.3 °F - 41.9 °F 68% 30.16 in 10.0 mi Calm Calm - N/A   Overcast
4:35 PM 52.0 °F - 40.1 °F 64% 30.16 in 10.0 mi North 3.5 mph - N/A   Overcast
4:55 PM 51.8 °F - 40.3 °F 65% 30.18 in 10.0 mi Calm Calm - N/A   Overcast
5:15 PM 51.3 °F - 41.7 °F 70% 30.18 in 10.0 mi Calm Calm - N/A   Overcast
5:35 PM 50.9 °F - 42.8 °F 74% 30.19 in 10.0 mi Calm Calm - N/A   Overcast
5:55 PM 50.2 °F - 43.2 °F 77% 30.19 in 10.0 mi Calm Calm - N/A   Overcast
6:15 PM 49.3 °F - 44.2 °F 83% 30.18 in 10.0 mi NE 3.5 mph - N/A   Overcast
6:35 PM 48.7 °F - 44.2 °F 84% 30.19 in 10.0 mi East 3.5 mph - N/A   Overcast
6:55 PM 48.4 °F - 44.4 °F 86% 30.19 in 10.0 mi Calm Calm - N/A   Overcast
7:15 PM 48.2 °F - 44.6 °F 87% 30.19 in 10.0 mi Calm Calm - N/A   Overcast
7:35 PM 48.0 °F - 44.6 °F 88% 30.19 in 10.0 mi Calm Calm - N/A   Overcast
7:55 PM 47.8 °F - 44.6 °F 89% 30.20 in 10.0 mi Calm Calm - N/A   Overcast
8:15 PM 47.5 °F - 44.6 °F 90% 30.20 in 10.0 mi Calm Calm - N/A   Overcast
8:35 PM 47.7 °F - 44.6 °F 89% 30.20 in 10.0 mi Calm Calm - N/A   Overcast
8:55 PM 46.9 °F - 44.1 °F 90% 30.21 in 10.0 mi Calm Calm - N/A   Overcast
9:15 PM 46.8 °F - 43.9 °F 90% 30.21 in 10.0 mi Calm Calm - N/A   Overcast
9:35 PM 46.4 °F - 43.7 °F 90% 30.21 in 10.0 mi Calm Calm - N/A   Overcast
9:55 PM 46.6 °F - 43.7 °F 90% 30.21 in 10.0 mi Calm Calm - N/A   Overcast
10:15 PM 46.4 °F - 44.1 °F 92% 30.21 in 10.0 mi Calm Calm - N/A   Overcast
10:35 PM 46.4 °F - 44.1 °F 92% 30.21 in 10.0 mi Calm Calm - N/A   Overcast
10:55 PM 46.4 °F - 44.6 °F 93% 30.20 in 10.0 mi Calm Calm - N/A   Overcast
11:15 PM 46.4 °F - 44.6 °F 93% 30.21 in 10.0 mi Calm Calm - N/A   Overcast
11:35 PM 46.8 °F - 45.1 °F 94% 30.21 in 10.0 mi Calm Calm - N/A   Overcast
11:55 PM 46.8 °F - 45.7 °F 96% 30.20 in 10.0 mi Calm Calm - N/A   Overcast